RJSSRJSA

Guest
Details From RJSS - SENDAI
To RJSA - AOMORI
Flight Number -
Tags generated
Created
Modified
Stats Distance 156 nm / 290 km
Max Altitude 10,700 ft / 3,261 m
Waypoints 3
Social Downloads 2
Likes 0
Share VATSIM

Download

Looking for another format? Having issues loading an existing format? Contact us
Advertisement - Login to hide

Notes

Basic altitude profile: - Ascent Rate: 2500ft/min - Ascent Speed: 250kts - Cruise Altitude: 35000ft - Cruise Speed: 420kts - Descent Rate: 1500ft/min - Descent Speed: 250kts Options: - Use NATs: yes - Use PACOTS: yes - Use low airways: yes - Use high airways: yes

Route

RJSS PEONY RJSA

ID Type Via Altitude Latitude Longitude Leg Dist Tot Dist Heading (true) Name
O RJSS APT - 0 ft / 0 m 38.13873˚ 140.91825˚ - 0 nm - SENDAI
PEONY FIX - 10,700 ft / 3,261 m 39.83271˚ 140.87292˚ 101 nm 101 nm 359° / 359° -
O RJSA APT - 0 ft / 0 m 40.73327˚ 140.68859˚ 54 nm 156 nm 351° / 351° AOMORI

Altitude Profile

Advertisement - Login to hide

RJSS

Details ICAO RJSS (SDJ)
Name SENDAI
Region Japan
Timezone Asia/Tokyo (UTC+9.0)
Stats Elevation 15 ft / 5 m (AMSL)
Location 38.138734° 140.918248°
Runways 2
Magnetic Variation 8.104° W

METAR

RJSS 210700Z 14007KT CAVOK 22/10 Q1017

Decode

TAF

TAF RJSS 210505Z 2106/2212 15013KT 9999 FEW040 BECMG 2109/2111 34004KT BECMG 2121/2200 13010KT BECMG 2209/2212 34004KT

Decode

Departure Runways

ID Width Length Bearing (true) Bearing (mag) Surface Threshold Offset Overrun Length
09 150 ft / 46 m 9,823 ft / 2,994 m 82.52° 90.62° Asphalt 0 ft / 0 m 200 ft / 61 m
12 150 ft / 46 m 3,932 ft / 1,199 m 117.79° 125.89° Asphalt 0 ft / 0 m 0 ft / 0 m
27 150 ft / 46 m 9,823 ft / 2,994 m 262.54° 270.64° Asphalt 0 ft / 0 m 200 ft / 61 m
30 150 ft / 46 m 3,932 ft / 1,199 m 297.80° 305.90° Asphalt 0 ft / 0 m 0 ft / 0 m

RJSA

Details ICAO RJSA (AOJ)
Name AOMORI
Region Japan
Timezone Asia/Tokyo (UTC+9.0)
Stats Elevation 664 ft / 202 m (AMSL)
Location 40.733272° 140.688594°
Runways 1
Magnetic Variation 8.959° W

METAR

RJSA 210700Z 27012KT CAVOK 20/06 Q1017

Decode

TAF

TAF TAF RJSA 210511Z 2106/2212 27010KT 9999 FEW030 BECMG 2110/2112 21008KT

Decode

Destination Runways

ID Width Length Bearing (true) Bearing (mag) Surface Threshold Offset Overrun Length
06 200 ft / 61 m 9,838 ft / 2,999 m 51.79° 60.75° Asphalt 0 ft / 0 m 200 ft / 61 m
24 200 ft / 61 m 9,838 ft / 2,999 m 231.81° 240.77° Asphalt 0 ft / 0 m 200 ft / 61 m

Approach Navaids

Runway Type Ident Frequency Range Bearing (true) Bearing (mag) Slope Elevation
24 Localiser IMR 111.90 MHz 18 nm / 33 km 231.78° 240.74° - 664 ft / 202 m (AMSL)
24 Glidescope IMR 111.90 MHz 10 nm / 19 km 231.80° 240.76° 3.00° 664 ft / 202 m (AMSL)
24 DME IMR 111.90 MHz 18 nm / 33 km - - - 676 ft / 206 m (AMSL)